Location: Augirein
(42.9320°N, 0.9181°E)
Time: 17:38:20
(UTC+00:00)

COSMOS 2406 - Pass Details

Date: 20 June 2021
Orbit: 843 x 864 km, 71.0° (Epoch: 02 August)

Event Time Altitude Azimuth Distance (km) Brightness Sun altitude
Exits shadow 03:26:02 - 195° (SSW) 2,912 5.5 -8.2°
Reaches altitude 10° 03:27:14 10° 194° (SSW) 2,455 5.1 -8.0°
Maximum altitude 03:32:50 71° 111° (ESE) 894 3.5 -7.3°
Drops below altitude 10° 03:38:28 10° 29° (NNE) 2,472 7.0 -6.5°
Sets 03:40:56 0° 27° (NNE) 3,413 7.8 -6.1°
